ECMWFNIL_500_rhum_021.txt.gz
RH
8 6 7 8 11 14 14 14 14 12 15 22 26 27 27 27 26 27 28 28 27 29 34 40 46 50 52 56 56 51 50 53 57 59 59 60 61 61 60 60 59 58
16 12 12 14 18 19 18 17 15 14 20 26 27 27 28 28 27 27 28 30 33 41 47 51 55 57 58 58 54 47 47 51 57 62 64 65 64 63 61 57 52 48
30 25 22 22 26 25 21 18 16 18 25 28 28 28 28 27 27 26 27 33 42 50 55 56 57 58 59 55 49 44 42 44 47 51 57 60 60 59 56 51 47 44
43 39 34 31 32 31 24 19 18 23 28 29 29 27 25 25 27 25 27 38 50 54 56 56 53 54 55 51 46 41 38 40 40 39 40 41 41 41 39 37 38 39
50 46 42 40 38 34 25 19 21 28 31 30 27 25 25 27 25 25 35 48 52 48 46 44 45 48 48 46 42 38 37 38 37 38 37 34 31 27 26 27 28 31
46 48 47 46 42 33 22 19 25 31 31 28 25 25 26 27 30 37 47 49 43 36 33 32 34 37 36 36 36 34 33 32 31 33 36 36 34 29 27 26 25 27
33 42 46 43 37 28 19 21 29 31 29 25 23 22 25 34 44 48 43 35 30 28 26 24 26 29 30 31 33 33 32 31 29 28 30 34 37 36 36 34 30 27
25 33 37 34 29 22 18 24 30 29 26 23 21 25 36 44 43 34 27 24 23 23 23 24 25 29 33 35 36 36 36 36 33 29 28 30 33 38 43 41 34 28
22 27 28 25 22 19 20 27 28 26 23 21 25 35 42 38 29 23 23 22 19 19 23 27 30 34 40 43 43 40 38 36 34 33 32 31 31 37 43 41 34 30
16 18 18 17 17 18 22 25 24 23 22 22 28 34 32 28 25 24 23 20 21 25 29 34 38 41 46 51 54 50 44 40 37 38 40 40 38 39 41 41 37 33
12 11 12 13 16 20 22 22 22 22 22 24 28 29 29 28 25 21 21 24 29 33 37 39 41 45 51 57 63 62 55 49 45 43 44 44 43 42 40 40 40 35
11 11 12 14 17 21 21 21 22 23 24 28 31 32 30 27 22 22 27 32 36 39 40 38 40 46 51 55 60 62 58 53 48 44 41 39 39 41 38 35 35 31
15 15 16 17 20 22 21 21 24 26 30 34 34 32 28 23 24 29 35 38 40 40 38 35 37 43 46 48 52 55 56 53 47 43 39 35 34 38 39 36 33 31
18 20 19 20 21 21 21 24 29 32 35 36 32 28 25 25 29 33 37 41 41 38 38 37 38 39 42 46 48 52 57 54 49 47 45 40 38 39 40 39 38 36
21 21 20 20 20 22 27 32 36 35 34 34 33 32 32 33 36 37 39 41 40 38 39 40 40 39 42 47 50 55 59 55 53 51 47 45 45 43 42 44 46 41
20 19 19 21 23 28 34 36 35 34 34 37 38 39 41 42 43 44 43 42 39 38 38 38 40 41 46 53 56 58 57 54 52 46 39 41 42 39 40 45 46 44
18 18 20 24 29 33 34 34 35 36 38 41 41 42 46 48 47 46 45 45 43 42 42 42 44 48 53 57 58 59 54 48 50 46 36 37 41 39 42 47 53 60
18 21 23 26 30 31 32 35 38 40 42 42 42 44 47 48 47 45 45 48 50 51 53 54 57 61 63 62 62 61 53 48 53 51 36 33 42 45 47 53 64 77
20 23 23 25 29 32 36 41 42 42 42 41 42 44 46 46 47 45 45 49 54 61 65 68 72 73 69 67 67 63 57 60 67 56 36 30 34 40 51 60 60 60
23 25 26 29 33 37 40 42 42 41 40 41 43 45 46 48 48 47 50 55 60 69 75 80 84 81 73 71 72 68 65 70 70 55 38 29 25 31 51 60 45 32
27 29 29 31 33 36 38 40 41 40 40 42 45 45 47 49 49 52 58 61 63 68 72 75 79 78 73 70 72 74 72 67 62 52 40 31 24 24 32 35 26 21
33 35 34 34 34 36 40 43 43 43 44 45 46 47 50 50 51 57 62 63 65 68 69 72 75 73 71 67 62 64 62 55 52 51 42 32 26 24 23 22 22 24
38 40 41 43 44 44 46 47 46 46 48 48 47 49 50 51 56 64 66 68 73 70 66 75 84 80 73 67 58 53 51 48 49 50 42 33 28 26 25 25 25 24
38 41 45 48 49 49 49 49 50 52 54 52 49 49 50 56 66 72 73 76 79 72 66 75 86 84 77 68 58 53 53 51 50 47 40 34 31 29 28 28 26 26
42 43 45 47 49 53 55 55 55 58 58 53 49 50 55 64 70 72 75 78 76 71 75 83 85 81 76 66 57 57 57 52 47 42 37 35 34 33 32 29 27 26
49 46 45 48 53 59 62 61 61 62 57 50 50 55 62 66 66 68 74 77 72 71 79 86 84 79 73 62 56 57 55 48 43 40 39 38 37 35 32 28 26 26

ECMWFNIL_500_rhum_024.txt.gz
RH
11 7 8 9 8 7 7 9 12 15 15 14 15 20 25 26 25 24 23 23 24 26 29 34 41 47 51 54 56 58 58 52 44 37 35 35 36 38 41 43 44 42
23 15 12 12 12 11 11 13 16 17 16 16 18 23 26 26 24 22 23 24 25 26 31 39 48 53 53 53 54 54 49 43 37 33 31 31 31 31 30 29 28 28
29 26 21 20 20 20 19 19 20 18 17 18 20 23 27 26 22 21 24 25 22 25 34 43 47 47 44 42 42 41 37 34 31 28 27 26 25 25 25 24 23 23
31 33 32 31 32 31 28 26 24 20 19 20 21 26 27 23 21 24 25 23 23 32 41 42 37 31 28 27 27 27 27 27 27 26 27 27 25 23 22 20 20 20
31 33 36 38 40 41 37 33 28 23 21 21 24 27 25 22 24 26 26 30 36 41 37 30 24 21 20 21 22 24 25 26 27 27 28 28 27 26 22 19 18 19
30 33 35 39 45 48 44 39 32 26 22 22 26 26 23 23 23 24 32 41 42 34 25 20 19 20 22 23 24 25 28 30 31 31 30 29 27 26 24 22 20 19
24 27 29 34 40 46 48 44 35 26 22 24 26 25 23 22 22 29 39 39 30 22 19 18 20 22 26 27 27 29 31 33 35 34 33 31 29 28 28 28 26 22
15 16 18 21 25 36 47 46 33 24 22 24 25 24 22 22 27 37 37 28 21 19 18 20 24 28 31 32 34 34 33 33 34 35 35 34 33 31 30 31 31 28
8 8 8 10 17 34 46 41 28 23 24 24 24 24 22 25 32 35 29 23 19 18 20 26 31 35 38 40 39 36 34 32 31 32 34 35 35 33 32 33 33 31
6 5 5 9 22 38 41 32 24 23 25 24 23 23 24 26 28 28 25 22 18 19 25 33 40 45 46 45 41 38 37 35 34 33 34 35 35 36 36 35 33 30
7 7 8 15 26 34 32 26 22 23 24 23 23 24 25 24 25 26 24 20 18 24 32 39 46 50 49 47 45 45 45 45 43 40 36 34 34 37 38 34 30 28
9 9 11 15 22 27 26 22 22 22 21 21 23 25 25 25 27 26 21 19 22 28 33 39 45 46 46 46 46 47 50 51 49 44 39 35 34 36 37 33 29 27
10 9 10 11 14 18 19 18 20 21 19 20 24 26 26 27 26 22 20 21 25 29 34 39 42 42 43 46 48 50 52 51 48 44 40 36 35 38 40 38 34 28
14 11 9 9 10 11 12 14 17 19 18 20 23 26 28 27 23 21 24 28 31 35 39 41 42 43 44 46 49 50 48 46 45 45 44 42 41 44 47 50 46 33
16 14 11 9 8 9 10 12 16 17 17 19 24 28 27 24 22 25 30 37 41 43 43 44 45 46 45 46 49 52 51 48 46 50 54 54 54 55 56 61 57 40
14 14 13 10 9 10 11 12 15 15 15 19 26 30 27 25 27 31 36 42 45 45 45 47 47 46 46 50 57 62 62 59 59 61 61 58 60 63 65 65 59 44
11 12 11 9 9 10 10 11 12 12 14 20 25 26 26 31 38 42 44 45 45 45 47 47 46 46 51 57 63 65 64 64 65 64 61 57 57 59 61 59 54 46
9 10 9 9 9 9 9 9 10 11 15 20 23 25 31 39 46 49 49 48 46 47 49 48 48 52 58 61 61 61 62 65 66 65 63 60 56 55 54 52 50 48
10 9 8 10 10 9 9 9 9 11 16 22 28 34 41 46 48 50 50 48 48 51 53 53 56 60 62 63 60 58 62 69 72 70 63 55 51 51 51 50 49 47
14 10 10 11 11 10 10 9 10 14 19 27 36 42 46 48 49 50 49 47 51 55 55 56 62 65 65 64 61 59 65 74 80 75 60 46 45 49 49 48 48 45
17 13 12 12 13 12 11 10 13 18 25 34 41 45 48 49 49 49 47 48 55 59 57 58 64 66 67 66 61 59 65 74 78 74 57 40 40 46 48 48 46 43
20 16 15 15 15 14 14 13 16 23 33 41 45 47 49 50 49 48 47 52 59 59 57 60 64 66 69 69 64 64 70 73 72 72 62 44 37 43 46 46 44 41
25 20 19 20 19 17 17 18 22 30 40 45 46 48 51 52 49 47 49 56 60 57 57 60 63 65 69 69 66 68 74 74 69 71 70 54 39 40 44 44 43 41
29 25 25 24 23 23 22 24 29 37 44 48 48 49 52 52 47 47 53 59 59 55 56 59 62 63 66 68 67 68 72 72 68 72 75 59 40 37 41 42 41 39
36 31 31 30 28 28 28 30 36 42 48 51 50 51 53 50 46 50 58 60 57 54 57 61 63 62 63 64 67 70 72 69 66 72 73 56 38 37 41 41 39 37
44 41 39 37 34 34 38 42 45 49 52 53 52 55 56 51 49 55 59 57 55 56 60 63 62 60 61 64 69 76 76 71 72 78 72 53 39 39 41 40 38 36

ECMWFNIL_500_rhum_030.txt.gz
RH
19 16 11 6 5 5 4 5 4 5 5 5 5 7 11 16 18 16 16 22 27 23 19 20 22 24 33 46 52 46 31 21 21 24 26 30 32 33 35 35 33 32
28 27 22 16 11 7 5 4 5 5 5 5 6 7 12 18 20 19 17 22 27 22 18 20 21 26 39 50 47 33 20 19 24 28 31 33 34 35 36 35 33 33
27 30 30 27 20 14 9 5 5 6 6 6 6 7 12 18 23 22 19 22 26 22 18 20 22 32 46 49 38 23 18 23 29 33 34 35 36 37 37 37 36 36
26 30 33 33 29 24 18 11 6 5 6 7 7 9 13 19 24 25 21 22 26 22 18 21 27 39 49 43 29 20 22 29 34 36 37 38 39 40 40 40 40 39
21 26 32 35 35 31 27 20 11 6 6 7 8 11 15 19 24 27 24 22 24 22 19 23 34 44 45 35 23 22 29 36 40 42 42 42 41 42 42 42 42 42
16 21 28 35 38 37 34 28 20 13 9 7 9 13 18 22 25 28 27 23 22 22 20 27 41 44 37 27 22 26 35 44 48 48 45 44 43 42 41 39 40 40
15 17 22 30 36 38 38 34 29 23 17 12 12 16 22 25 25 28 29 24 22 21 20 31 43 39 29 24 25 31 41 49 51 47 44 43 41 37 36 38 40 41
13 14 17 22 29 34 37 37 34 32 28 22 18 20 28 29 25 27 30 26 23 20 20 33 41 33 25 24 28 36 45 48 46 43 41 39 35 36 41 48 50 49
12 12 14 16 21 27 33 37 37 37 37 33 27 28 35 35 28 28 29 27 25 19 21 33 38 31 26 27 34 43 47 45 41 40 38 35 35 41 50 56 58 57
19 14 13 14 16 19 25 32 37 39 40 38 35 38 45 43 33 29 29 28 26 21 21 33 36 29 27 31 42 51 49 43 41 39 36 36 41 46 50 56 61 63
28 20 15 14 15 14 16 23 31 37 39 38 40 46 54 51 38 31 29 29 28 22 21 31 34 29 29 36 48 55 50 43 41 39 38 42 47 47 49 56 62 64
36 31 22 18 19 20 17 16 21 29 35 39 44 52 61 59 45 34 30 30 29 24 22 29 32 28 30 40 52 55 48 44 43 41 42 49 51 50 54 58 60 62
44 44 38 27 25 28 25 18 15 18 25 33 43 53 63 63 50 36 30 30 29 24 22 28 30 27 30 43 54 52 46 45 44 42 47 54 55 55 59 60 59 61
50 54 52 42 34 31 28 23 18 15 16 22 29 43 59 64 54 38 30 30 29 23 23 27 28 27 32 46 55 50 45 45 43 42 48 54 56 57 60 61 58 59
52 55 56 51 42 33 28 28 25 19 18 19 23 35 53 61 52 39 30 28 26 22 22 26 28 28 36 50 56 50 44 44 43 43 48 53 56 58 60 60 57 56
53 55 57 55 48 40 33 29 27 24 22 23 26 34 46 48 40 32 27 24 23 20 21 26 29 30 40 53 57 51 46 44 42 43 48 53 56 58 59 57 54 56
51 53 55 54 52 49 43 35 30 28 25 24 24 27 30 29 25 23 22 21 20 19 21 28 29 32 44 56 58 55 49 42 38 42 51 57 58 58 57 57 55 54
53 53 54 54 55 54 52 48 42 35 30 27 25 23 23 21 18 18 19 21 20 19 23 29 29 34 48 57 59 57 48 39 38 46 56 59 59 58 56 57 56 53
60 59 57 57 58 58 57 55 51 46 42 36 31 28 25 21 19 17 17 20 20 19 25 30 31 38 51 58 60 56 47 40 43 51 59 59 59 60 57 54 54 54
65 64 62 60 60 62 61 57 54 53 53 49 44 38 30 23 21 20 19 20 20 21 26 31 34 44 55 59 60 56 47 43 47 54 60 60 61 65 61 55 55 53
68 69 69 68 66 65 63 60 57 55 57 56 54 50 42 32 25 22 21 22 21 22 26 31 37 48 55 57 59 56 49 46 49 55 61 63 66 70 67 61 59 56
73 74 76 78 78 74 70 66 61 58 59 60 58 57 53 43 32 25 24 24 24 24 26 30 39 47 51 54 58 58 52 48 51 57 61 65 71 74 71 66 64 61
75 76 78 81 83 82 79 75 70 64 61 61 61 60 58 52 42 32 27 26 27 26 26 32 41 48 49 53 59 59 54 52 54 58 59 65 75 77 73 71 69 65
78 78 81 83 84 83 79 78 76 70 65 63 62 60 59 58 52 43 34 29 28 29 29 34 44 51 51 53 58 59 56 56 58 59 60 67 77 80 77 77 77 72
82 82 82 81 82 83 81 80 79 76 71 69 66 62 60 59 57 50 42 34 30 29 30 34 43 53 53 52 57 61 60 58 60 62 66 73 80 81 78 81 83 78
82 82 81 79 79 80 81 82 83 81 78 76 72 65 61 60 60 57 52 44 36 30 30 33 39 50 54 52 55 60 60 58 61 69 75 77 76 75 79 85 84 78

ECMWFNIL_500_rhum_033.txt.gz
RH
6 5 5 4 4 4 4 4 4 4 5 5 5 5 5 5 7 10 14 17 17 16 18 20 19 18 19 26 35 30 18 15 22 28 28 27 29 30 31 31 31 32
11 13 13 10 7 5 4 4 4 4 5 5 5 5 5 5 7 11 15 18 19 18 18 18 19 18 20 29 34 25 15 18 25 28 27 27 30 32 34 34 33 34
15 19 22 21 17 12 9 7 6 5 5 5 5 5 6 6 7 11 16 19 21 21 19 18 18 17 21 31 33 21 14 20 26 27 27 29 33 35 35 34 33 33
17 21 25 28 27 23 19 16 11 8 6 5 6 6 7 6 7 11 17 20 22 23 22 19 17 16 21 32 32 18 15 23 27 28 29 32 36 35 33 31 32 36
24 27 29 31 33 31 29 24 18 13 10 8 8 7 7 7 7 10 16 21 23 25 24 21 18 15 20 32 31 17 16 25 28 30 32 35 36 33 30 31 36 44
31 31 33 35 37 38 36 31 24 19 16 13 13 11 8 7 7 9 15 20 24 26 26 24 20 16 19 32 31 17 16 25 29 31 34 36 36 32 30 31 37 47
27 26 27 30 34 38 41 40 34 27 22 18 17 17 13 8 6 8 14 20 24 28 28 25 22 17 20 31 31 18 16 26 31 32 35 38 36 33 31 30 35 42
26 25 23 23 25 31 38 42 41 36 30 24 21 21 19 13 8 8 14 22 26 29 30 28 24 19 20 31 31 19 17 27 34 35 37 39 36 33 31 29 31 37
32 28 23 20 20 24 29 37 42 41 37 32 28 25 24 20 14 10 16 25 29 31 33 30 25 20 22 31 31 20 17 27 35 37 38 39 38 34 32 29 29 34
36 29 22 18 17 19 22 28 34 39 40 37 33 30 30 28 23 17 20 30 34 34 35 33 26 22 23 30 31 22 19 26 34 38 39 40 39 36 33 31 31 35
41 34 29 24 19 17 18 20 23 28 33 36 36 34 33 33 31 26 27 37 39 36 36 34 27 22 23 29 31 24 21 26 32 37 40 41 40 37 34 33 34 39
45 39 39 36 27 19 17 16 15 16 19 24 29 33 34 35 36 34 35 43 45 40 38 35 28 22 22 27 31 26 23 27 31 37 42 43 42 37 33 33 36 42
48 45 45 45 39 30 24 19 17 16 15 15 16 20 24 27 32 35 39 48 52 47 40 36 29 22 21 26 30 28 26 29 33 39 45 45 43 37 32 33 37 45
51 49 49 48 45 39 36 34 32 26 20 17 16 14 15 16 19 24 30 42 52 51 43 36 30 23 20 25 30 28 29 33 36 42 48 47 43 38 34 34 39 47
53 52 51 49 45 43 46 51 48 40 32 26 22 20 18 17 15 16 19 28 40 46 44 37 30 22 20 26 30 29 32 36 38 43 49 49 45 39 35 36 42 49
53 52 50 49 47 46 51 57 56 53 48 41 33 27 23 22 20 19 20 24 32 40 42 38 30 23 22 26 29 29 32 36 40 44 48 48 45 41 37 40 47 52
54 54 53 51 51 50 53 57 58 57 54 51 46 40 34 29 24 22 21 23 27 33 35 34 29 25 24 26 29 29 31 35 40 43 46 47 44 41 40 44 50 53
57 57 56 54 52 50 52 56 60 59 56 53 53 52 49 41 32 24 22 22 23 24 25 26 27 27 26 25 28 29 30 33 38 40 44 45 43 41 43 48 52 53
61 59 58 56 55 55 56 58 59 59 58 58 57 55 54 52 45 35 26 22 21 22 22 23 26 28 27 24 27 30 29 31 35 38 43 44 41 40 45 52 53 52
68 64 60 60 61 61 60 60 59 58 59 61 61 58 55 56 56 49 40 31 25 22 22 22 24 27 26 24 26 29 30 30 31 35 40 41 39 41 47 53 53 50
75 70 64 63 65 64 62 60 59 58 59 60 62 62 59 57 57 56 52 45 35 26 22 21 22 24 25 24 25 28 30 28 27 30 36 39 39 42 48 53 52 50
79 75 70 67 66 65 64 63 62 63 65 64 64 64 63 60 59 58 56 52 46 36 28 24 24 25 25 24 24 28 29 27 25 28 33 38 41 44 49 52 51 52
82 80 75 70 67 67 66 65 66 73 76 75 73 73 71 66 63 61 59 56 52 45 38 33 29 27 26 25 25 27 28 27 25 28 34 39 42 45 49 52 52 56
80 79 79 75 71 70 70 69 70 75 79 79 76 75 75 73 69 66 63 59 56 53 49 44 38 32 28 27 26 27 28 27 26 28 33 38 41 44 48 50 53 58
70 76 83 82 76 74 74 75 77 78 78 76 73 74 77 77 76 73 68 64 61 59 56 52 49 44 37 31 28 28 28 28 26 27 30 36 41 44 48 51 54 60
75 82 83 80 79 78 79 80 78 75 73 73 76 78 75 70 71 73 73 69 64 61 61 59 56 54 50 41 33 29 29 29 27 26 28 35 41 45 50 55 57 63

ECMWFNIL_500_rhum_036.txt.gz
RH
3 3 3 3 3 4 4 4 4 4 4 5 5 4 5 5 5 6 7 12 17 20 19 16 16 16 15 15 18 26 32 24 15 16 20 23 26 28 31 31 30 29
3 4 4 3 4 4 4 4 4 4 4 4 4 4 5 4 5 6 6 10 16 21 22 19 18 18 17 16 17 25 32 25 15 16 21 25 28 31 32 30 29 31
4 5 5 4 5 4 4 5 5 5 5 5 5 5 6 6 5 6 6 9 14 20 24 23 21 18 18 18 17 25 33 26 16 16 21 27 30 31 30 27 31 38
6 7 8 8 9 9 10 9 8 7 7 6 6 5 6 7 6 6 6 8 13 19 24 25 24 20 19 20 18 24 33 28 17 16 21 29 32 30 27 26 31 39
6 7 8 11 15 17 19 19 16 14 12 10 9 8 7 7 7 7 6 7 10 17 23 26 27 24 19 20 20 23 33 31 19 16 22 29 32 28 26 26 27 30
11 10 11 12 15 18 22 25 25 24 22 19 16 14 12 9 8 7 6 7 9 14 22 26 29 28 22 20 20 23 33 34 22 16 22 28 30 28 27 27 25 24
24 23 22 21 21 22 25 28 30 30 29 27 25 22 19 16 13 9 7 7 7 10 18 25 30 31 26 20 20 22 31 36 26 17 21 27 29 29 29 28 26 23
36 35 33 31 29 27 28 29 30 32 33 31 30 28 26 23 20 15 10 7 7 9 14 23 29 33 31 24 20 22 29 36 30 19 20 27 29 30 31 30 28 25
40 37 32 29 27 26 26 26 25 27 30 31 33 34 32 29 26 22 16 10 8 8 12 21 28 34 35 28 21 21 27 34 33 22 19 26 30 32 34 33 31 28
37 32 29 28 30 29 26 22 20 20 22 25 30 33 35 35 32 29 24 18 13 11 12 20 28 33 36 33 25 22 25 32 34 26 20 23 29 33 36 36 34 31
37 32 32 36 36 31 25 20 16 15 16 19 23 27 31 35 35 34 31 26 23 18 15 21 28 33 36 36 30 23 23 29 34 29 21 21 27 33 37 38 36 34
39 36 39 42 39 35 31 24 16 12 11 13 15 18 22 27 32 35 34 32 30 28 25 25 31 35 38 39 34 26 22 25 31 31 23 19 25 31 37 39 38 36
44 41 44 46 43 40 36 28 18 12 11 11 11 12 13 15 19 24 30 33 34 34 33 32 35 39 41 42 39 30 24 23 29 32 26 20 23 28 35 39 40 38
50 47 47 48 46 43 37 29 21 15 13 14 14 13 14 13 12 12 16 22 28 32 35 36 39 43 44 44 41 34 26 23 26 31 28 22 22 26 32 38 41 40
55 52 50 50 48 43 36 28 23 21 21 20 19 18 17 17 16 14 12 12 16 21 27 31 37 44 48 47 42 35 29 24 25 30 30 24 21 23 29 35 40 41
61 55 51 50 48 43 36 29 28 29 29 30 32 30 28 26 21 17 16 15 14 14 17 21 27 38 48 49 43 36 31 26 25 28 29 24 21 21 25 33 40 41
65 57 52 50 48 44 39 34 34 35 34 38 42 44 46 45 35 24 19 19 18 17 17 19 23 32 44 48 44 37 32 27 24 26 27 25 21 20 23 30 37 42
65 56 52 50 47 46 44 42 41 40 38 39 44 49 55 55 48 40 31 24 20 20 18 18 22 30 39 44 42 38 32 27 24 24 25 24 21 20 22 26 33 39
60 55 52 49 48 48 47 45 44 44 42 43 47 53 57 56 53 52 48 36 27 24 22 19 18 23 30 34 34 32 28 25 22 22 23 23 22 22 22 23 28 35
57 56 55 53 52 52 50 48 48 47 49 51 52 53 56 58 57 58 57 50 38 31 29 25 21 20 21 23 23 23 22 21 20 20 20 21 21 21 22 23 24 30
60 60 59 57 56 55 53 53 52 51 53 56 56 55 57 59 60 59 60 57 50 41 35 33 31 28 22 20 20 20 19 18 18 17 18 19 19 19 21 22 23 27
60 62 62 61 60 58 56 56 56 55 57 59 58 58 57 58 61 61 61 61 58 53 46 41 41 40 34 27 23 21 20 18 16 16 17 17 17 19 21 22 22 24
63 65 67 68 67 64 60 59 59 60 61 61 60 60 59 60 61 62 64 64 62 62 58 51 49 52 54 47 37 29 25 21 18 18 18 18 18 19 21 22 21 22
71 73 76 77 74 69 64 62 61 62 64 64 63 62 62 65 67 67 68 67 64 64 63 59 55 55 58 60 55 47 39 31 26 22 18 19 19 20 22 22 21 22
76 78 79 79 78 73 69 66 67 69 69 68 67 65 63 65 69 70 71 71 70 70 69 66 64 60 56 56 58 60 57 50 44 37 29 24 23 22 23 23 23 23
71 73 72 72 74 74 72 73 73 74 73 70 70 69 64 61 63 65 67 70 73 76 72 63 60 61 61 57 53 57 63 64 59 55 48 41 34 30 26 24 25 24